Weather History for Shreveport Downtown, LA

Change the Weather History Date:

Wednesday, November 27, 2013

  Actual Average (KSHV) Record (KSHV)
Temperature  
Mean Temperature 44 °F 52 °F  
Max Temperature 57 °F 63 °F 82 °F (1989)
Min Temperature 30 °F 42 °F 22 °F (1975)
Degree Days  
Heating Degree Days 22 13  
Month to date heating degree days 244  
Since 1 July heating degree days 330  
Cooling Degree Days 0 0  
Month to date cooling degree days 23  
Year to date cooling degree days 2472  
Moisture  
Dew Point 26 °F    
Average Humidity 61    
Maximum Humidity 82    
Minimum Humidity 27    
Precipitation  
Precipitation 0.00 in 0.15 in 2.10 in (1990)
Month to date precipitation 4.05  
Year to date precipitation 46.16  
Snow  
Snow 0.00 in - - ()
Month to date snowfall  
Since 1 July snowfall  
Since 1 September snowfall  
Snow Depth -    
Sea Level Pressure  
Sea Level Pressure 30.37 in    
Wind  
Wind Speed 6 mph (NNW)    
Max Wind Speed 10 mph    
Max Gust Speed -    
Visibility 10 miles    
Events      
T = Trace of Precipitation, MM = Missing Value Source: NWS Daily Summary

Daily Weather History Graph

Daily Weather History Graph

Search for Another Location

Airport:

Trip Planner

Search our weather history database for the weather conditions in past years. The results will help you decide how hot, cold, wet, or windy it might be!

Date:

Astronomy

Nov. 27, 2013 Rise Set
Actual Time 6:55 AM CST 5:09 PM CST
Civil Twilight 6:28 AM CST 5:36 PM CST
Nautical Twilight 5:58 AM CST 6:06 PM CST
Astronomical Twilight 5:29 AM CST 6:36 PM CST
Moon 1:16 AM CST (11/27) 1:31 PM CST (11/27)
Length of Visible Light 11h 07m
Length of Day
10h 13m
Waning Crescent, 31% of the Moon is Illuminated
Nov 27
Waning Crescent
Dec 2
New
Dec 9
First Quarter
Dec 17
Full
Dec 25
Last Quarter

Hourly Weather History & Observations

Time (CST) Temp. Windchill Dew Point Humidity Pressure Visibility Wind Dir Wind Speed Gust Speed Precip Events Conditions
12:53 AM 36.0 °F 30.3 °F 30.0 °F 79% 30.27 in 10.0 mi NNW 6.9 mph - N/A   Clear
1:53 AM 35.1 °F 28.6 °F 28.9 °F 78% 30.29 in 10.0 mi NNW 8.1 mph - N/A   Clear
2:53 AM 34.0 °F 29.8 °F 28.0 °F 79% 30.31 in 10.0 mi NNW 4.6 mph - N/A   Clear
3:53 AM 32.0 °F 26.4 °F 26.1 °F 79% 30.31 in 10.0 mi NNW 5.8 mph - N/A   Clear
4:53 AM 30.9 °F 26.2 °F 26.1 °F 82% 30.33 in 10.0 mi NW 4.6 mph - N/A   Clear
5:53 AM 30.0 °F 24.1 °F 24.1 °F 79% 30.35 in 10.0 mi NW 5.8 mph - N/A   Clear
6:53 AM 30.0 °F 26.5 °F 24.1 °F 79% 30.37 in 10.0 mi NW 3.5 mph - N/A   Clear
7:53 AM 32.0 °F 25.6 °F 25.0 °F 75% 30.39 in 10.0 mi NNW 6.9 mph - N/A   Clear
8:53 AM 46.0 °F 41.0 °F 25.0 °F 44% 30.42 in 10.0 mi NNW 10.4 mph - N/A   Clear
9:53 AM 43.0 °F 38.2 °F 26.1 °F 51% 30.42 in 10.0 mi North 8.1 mph - N/A   Clear
10:53 AM 51.1 °F - 27.0 °F 39% 30.42 in 10.0 mi Variable 4.6 mph - N/A   Clear
11:53 AM 53.1 °F - 25.0 °F 34% 30.40 in 10.0 mi NNW 8.1 mph - N/A   Clear
12:53 PM 57.9 °F - 24.1 °F 27% 30.37 in 10.0 mi North 10.4 mph - N/A   Clear
1:53 PM 52.0 °F - 23.0 °F 32% 30.35 in 10.0 mi NNW 8.1 mph - N/A   Clear
2:53 PM 50.0 °F - 21.9 °F 33% 30.34 in 10.0 mi North 6.9 mph - N/A   Clear
3:53 PM 51.1 °F - 23.0 °F 33% 30.35 in 10.0 mi North 8.1 mph - N/A   Clear
4:53 PM 46.0 °F 44.8 °F 23.0 °F 40% 30.36 in 10.0 mi North 3.5 mph - N/A   Clear
5:53 PM 39.0 °F - 25.0 °F 57% 30.37 in 10.0 mi Calm Calm - N/A   Clear
6:53 PM 37.0 °F - 26.1 °F 65% 30.39 in 10.0 mi Calm Calm - N/A   Clear
7:53 PM 35.1 °F - 27.0 °F 72% 30.40 in 10.0 mi Calm Calm - N/A   Clear
8:53 PM 34.0 °F - 27.0 °F 75% 30.40 in 10.0 mi Calm Calm - N/A   Clear
9:53 PM 33.1 °F - 26.1 °F 75% 30.42 in 10.0 mi Calm Calm - N/A   Clear
10:53 PM 33.1 °F - 26.1 °F 75% 30.42 in 10.0 mi Calm Calm - N/A   Clear
11:53 PM 33.1 °F - 26.1 °F 75% 30.44 in 10.0 mi Calm Calm - N/A   Clear